Wind_Speed
43 43 43 44 44 44 44 45 45 46 46 46 45 45 45 44 44 43 43 43 42 42 41 41 40 39 39 39 38 37 36 36 36 36 35 35 35 34 34 33 33 33 33
45 45 46 46 47 47 47 47 48 48 48 48 48 48 48 47 47 47 47 46 46 45 44 43 42 41 41 41 40 40 39 38 38 38 38 37 37 37 36 35 34 34 34
47 47 48 49 49 50 50 50 50 51 51 51 51 51 51 51 51 50 50 49 48 48 46 45 45 43 43 43 42 42 41 41 41 40 39 38 38 38 38 37 37 36 36
48 49 50 51 51 52 52 52 52 52 53 54 54 53 53 53 53 52 52 51 50 50 49 48 48 47 46 45 45 44 43 43 42 42 42 40 40 40 39 39 38 38 37
49 50 50 51 52 53 53 53 54 54 54 55 56 56 55 55 54 54 54 53 53 52 52 51 50 49 49 48 47 47 46 45 44 44 44 43 42 41 41 40 40 40 39
49 50 50 51 52 53 54 54 54 55 56 57 58 57 57 56 56 55 55 54 54 54 53 53 52 52 52 50 49 49 48 47 47 46 46 45 44 43 43 42 42 42 41
49 50 50 51 51 52 53 53 54 55 57 58 58 58 57 57 57 56 56 56 56 55 56 55 54 53 53 52 51 51 50 49 49 48 47 47 47 45 45 44 43 43 42
47 48 49 49 50 51 52 52 53 54 55 57 57 58 58 57 57 56 56 56 56 56 56 56 55 54 53 53 53 52 52 52 51 51 50 49 48 47 45 45 44 43 43
46 47 48 50 50 51 52 53 53 54 55 55 56 57 58 58 57 57 57 57 57 56 55 55 56 55 54 55 55 54 53 53 53 52 51 50 49 48 46 47 46 44 43
45 48 49 50 51 52 52 52 52 53 54 54 55 57 58 58 58 57 56 56 57 57 57 56 55 55 55 55 55 55 54 55 55 53 53 52 51 50 49 48 47 46 45
46 47 49 49 50 51 51 52 52 52 52 53 54 56 57 58 58 57 56 56 57 57 58 57 56 56 56 56 56 56 55 56 55 55 54 53 53 52 50 50 49 48 47
46 47 47 49 49 50 51 51 51 52 52 53 53 54 54 55 56 57 56 56 56 56 58 57 57 57 57 57 57 56 55 55 55 55 54 54 54 52 52 51 49 48 47
46 46 47 48 49 50 50 51 51 52 52 52 52 53 54 55 55 56 56 55 54 54 56 57 57 58 59 58 56 55 55 55 55 55 55 54 54 53 53 51 51 49 47
46 46 47 48 49 49 50 50 51 51 51 51 52 53 53 54 55 54 55 55 53 52 52 54 55 56 58 58 57 57 56 56 56 55 55 54 54 54 53 52 52 50 48
47 47 47 47 48 50 50 50 50 50 51 51 51 51 52 53 54 53 52 52 53 51 50 51 53 53 54 55 54 54 54 55 56 55 54 54 54 53 53 52 52 52 50
48 48 47 47 48 49 49 49 50 50 51 50 50 50 50 50 50 50 50 50 50 49 48 47 49 51 52 51 51 51 51 52 53 54 54 54 53 52 53 53 53 51 51
47 47 46 47 48 48 49 49 49 50 50 50 50 49 49 49 49 48 48 47 46 46 46 43 44 46 48 48 48 49 48 49 49 50 50 51 51 51 52 52 52 51 49
47 47 47 47 47 47 48 48 49 49 49 50 49 49 48 48 47 47 47 46 45 44 44 42 41 42 44 45 46 47 47 47 46 46 46 48 49 49 50 50 50 49 49
46 47 47 47 47 47 47 48 49 49 49 49 49 48 47 47 46 46 45 44 43 42 41 41 40 41 42 43 44 44 45 44 45 44 44 46 47 48 49 49 48 48 48
45 46 46 46 46 46 47 48 49 48 48 47 47 46 46 45 45 45 44 43 42 41 40 40 39 40 40 39 40 41 42 43 43 42 43 45 45 45 47 47 47 47 47
44 45 45 45 46 47 48 48 48 47 46 44 44 44 44 44 43 43 42 41 40 40 39 38 38 39 38 37 39 40 41 42 41 41 41 42 42 42 44 44 45 44 45
42 43 44 45 45 46 46 47 47 45 43 42 41 40 40 40 39 39 40 39 39 38 37 36 36 37 36 36 37 39 40 40 39 38 38 38 39 39 40 41 41 41 41
41 42 42 43 43 44 45 44 43 42 40 39 37 36 35 35 36 36 37 37 36 35 35 34 34 34 33 33 34 36 36 36 37 36 36 35 36 36 36 37 38 38 39
40 41 41 42 42 42 42 41 40 38 36 34 32 32 32 32 32 32 33 33 33 33 33 33 33 32 32 32 32 32 33 32 33 34 35 35 35 35 35 36 36 36 36
40 40 40 40 39 38 38 38 37 35 32 30 29 28 29 29 29 29 29 30 30 31 31 31 31 31 30 30 30 30 30 30 32 32 32 31 32 34 34 33 32 33 34
37 37 37 37 37 37 37 35 34 32 30 28 27 27 27 27 28 28 28 29 29 28 28 30 30 30 29 28 28 28 27 27 27 28 28 28 29 30 31 30 29 30 31
Wind_Direction
268 268 269 268 268 269 270 270 270 271 270 270 270 270 271 271 270 270 270 269 268 267 266 266 267 268 267 268 268 268 268 270 271 271 272 273 275 276 277 279 281 284 286
269 269 269 269 270 270 270 271 270 270 270 270 270 270 270 271 271 269 269 269 267 266 265 265 265 266 267 266 266 266 266 268 269 270 271 272 274 276 276 277 279 282 284
270 270 270 270 271 271 271 271 271 270 270 270 270 269 270 270 270 269 268 268 267 265 264 264 264 264 266 265 265 264 265 267 268 268 268 271 273 274 276 277 278 280 283
272 271 271 271 271 271 271 271 270 270 270 270 270 269 270 270 269 268 267 266 266 265 263 263 263 262 263 264 264 263 264 265 267 267 267 269 271 273 275 277 278 279 282
273 273 272 271 272 272 271 271 270 270 270 270 270 270 270 269 268 267 266 265 265 265 263 262 262 262 262 263 263 263 263 263 264 265 266 268 270 271 273 275 277 279 280
274 274 273 273 273 273 272 271 271 271 271 271 271 270 269 268 268 268 267 266 265 265 264 262 261 261 262 261 261 261 261 262 263 264 265 266 267 268 270 273 276 278 278
274 274 275 275 274 273 272 272 272 272 272 272 271 269 268 268 268 268 267 266 265 266 265 264 261 261 261 260 260 260 259 261 262 262 263 264 265 266 268 271 274 275 277
275 275 276 277 277 275 274 273 273 273 273 272 271 270 269 268 268 268 267 266 265 265 264 263 262 261 259 259 258 258 258 259 260 260 261 262 264 265 266 268 272 273 275
277 277 277 278 278 277 275 275 275 275 274 273 271 271 271 269 268 268 267 266 265 264 264 263 261 260 260 259 257 257 258 258 260 260 260 261 262 264 266 268 268 270 274
282 280 279 278 278 278 277 276 276 276 276 274 272 272 272 272 271 269 267 266 265 265 263 261 260 260 259 258 257 256 257 257 258 259 259 259 260 262 264 266 267 269 272
284 283 281 280 279 279 278 277 276 276 276 275 274 273 273 273 272 272 269 267 265 264 263 262 260 259 259 258 257 256 257 257 257 257 257 258 259 261 263 264 266 268 270
285 285 284 282 281 280 280 279 277 277 276 276 276 275 274 273 273 272 269 267 265 263 263 262 261 260 260 259 259 256 256 257 256 257 257 257 257 259 260 261 263 265 268
285 285 286 285 283 282 281 280 279 278 277 276 276 276 275 275 275 273 270 269 266 263 262 261 262 261 260 259 259 257 256 257 256 255 255 255 256 257 258 259 260 262 265
286 287 288 287 286 284 281 280 279 278 277 277 278 277 277 276 275 274 272 270 267 263 262 262 261 261 260 258 259 257 256 255 254 254 253 254 255 255 256 257 259 260 263
288 288 288 288 287 286 284 282 281 279 278 278 279 278 278 276 274 273 272 271 268 265 264 263 260 259 258 257 258 256 254 253 253 253 253 253 253 254 255 256 257 259 262
289 288 288 289 289 288 286 284 283 281 279 279 279 278 278 276 274 272 271 270 268 266 265 263 260 258 256 255 255 253 252 252 252 252 253 252 252 252 254 255 256 258 260
290 290 290 291 292 291 288 286 285 283 280 279 279 278 278 277 275 273 271 270 268 267 266 263 260 258 255 253 251 250 250 251 251 252 254 253 252 252 253 253 254 256 259
291 291 291 292 292 293 291 288 287 285 283 281 279 278 276 276 274 272 270 269 267 267 266 263 260 258 255 252 251 250 250 249 250 252 255 255 252 251 251 252 252 255 258
293 291 292 294 293 293 294 292 290 287 285 283 280 278 275 274 273 271 268 267 266 267 266 263 261 256 253 252 251 250 249 249 249 253 256 254 252 251 250 250 251 254 256
295 294 293 293 294 295 296 295 293 290 287 284 281 277 275 274 272 268 266 264 264 264 264 262 259 255 252 251 250 249 249 248 249 252 254 253 252 251 251 250 252 254 257
296 297 296 295 295 297 297 297 296 292 288 286 282 279 276 273 269 266 264 263 263 262 262 260 257 253 253 252 249 247 248 248 249 252 253 254 253 253 253 252 252 254 256
298 299 298 298 298 298 298 299 298 293 291 288 285 280 275 271 267 265 263 261 260 261 260 259 255 253 252 250 248 246 248 249 250 251 252 253 254 255 255 254 254 255 257
299 300 299 299 299 300 301 301 299 297 294 290 285 279 273 268 266 265 262 259 258 258 258 257 253 250 249 248 247 246 247 249 250 251 252 252 252 253 254 254 253 256 257
299 300 301 301 302 303 303 301 301 300 296 291 284 277 272 268 267 265 260 256 255 254 255 254 250 247 247 246 244 245 245 247 250 252 253 252 251 251 252 254 254 255 258
300 301 302 303 304 304 303 303 303 300 297 291 284 277 272 269 267 264 257 253 252 252 252 249 246 246 245 244 244 245 245 246 249 250 250 252 252 251 252 254 255 256 258
302 303 304 304 304 304 303 305 303 301 298 291 284 278 273 269 267 262 256 253 252 251 248 245 244 245 244 244 245 245 244 243 246 245 246 250 251 251 251 250 252 256 257
Height
5766 5767 5767 5768 5768 5769 5769 5770 5770 5771 5771 5772 5773 5773 5774 5774 5775 5777 5778 5779 5780 5781 5782 5783 5783 5784 5785 5786 5786 5787 5788 5788 5788 5789 5789 5788 5789 5789 5788 5788 5788 5787 5786
5756 5756 5757 5757 5758 5758 5758 5759 5760 5760 5760 5761 5762 5762 5763 5763 5764 5765 5767 5768 5769 5770 5772 5773 5774 5775 5776 5776 5777 5778 5778 5779 5780 5780 5780 5781 5781 5781 5780 5780 5780 5779 5778
5745 5745 5745 5746 5746 5746 5747 5747 5748 5748 5749 5749 5750 5750 5751 5751 5752 5753 5754 5756 5757 5759 5760 5762 5764 5765 5766 5766 5767 5768 5769 5770 5770 5771 5772 5772 5772 5773 5773 5772 5772 5771 5771
5732 5732 5733 5733 5733 5733 5734 5734 5735 5735 5736 5736 5737 5737 5737 5738 5739 5740 5741 5743 5744 5746 5748 5750 5752 5753 5755 5756 5757 5758 5759 5760 5761 5762 5762 5763 5764 5764 5764 5764 5764 5763 5762
5719 5719 5720 5720 5720 5720 5720 5720 5721 5721 5722 5722 5722 5723 5723 5724 5725 5726 5727 5729 5731 5733 5735 5737 5739 5741 5743 5744 5746 5747 5748 5750 5751 5752 5752 5754 5754 5755 5755 5755 5755 5754 5754
5706 5706 5706 5706 5706 5706 5706 5706 5706 5707 5707 5707 5707 5707 5708 5709 5710 5711 5713 5715 5716 5718 5720 5723 5725 5727 5729 5731 5733 5735 5737 5738 5740 5741 5742 5743 5744 5745 5745 5745 5745 5745 5744
5692 5693 5692 5692 5692 5692 5691 5691 5692 5692 5692 5691 5691 5692 5693 5694 5695 5696 5697 5699 5701 5703 5705 5707 5710 5712 5714 5717 5719 5722 5724 5726 5727 5729 5730 5732 5733 5734 5735 5735 5735 5735 5735
5679 5679 5679 5678 5677 5677 5677 5677 5676 5676 5676 5675 5674 5675 5677 5680 5681 5681 5682 5683 5685 5686 5688 5691 5693 5696 5699 5702 5704 5707 5710 5712 5715 5717 5718 5720 5722 5723 5724 5725 5725 5725 5725
5667 5666 5666 5665 5664 5664 5664 5663 5662 5661 5661 5660 5658 5658 5660 5663 5665 5667 5667 5668 5669 5671 5673 5675 5677 5680 5682 5686 5689 5692 5695 5698 5701 5703 5705 5708 5710 5711 5712 5713 5714 5714 5715
5655 5654 5653 5652 5651 5650 5649 5648 5647 5646 5645 5644 5644 5643 5644 5644 5646 5650 5652 5652 5654 5655 5657 5659 5661 5664 5667 5670 5673 5677 5680 5683 5686 5689 5692 5694 5697 5699 5700 5702 5703 5703 5704
5644 5642 5640 5639 5638 5636 5635 5634 5633 5632 5631 5630 5629 5629 5629 5628 5629 5630 5634 5637 5637 5639 5640 5643 5645 5648 5650 5653 5657 5661 5665 5668 5671 5674 5677 5680 5683 5685 5688 5689 5691 5691 5692
5632 5630 5628 5626 5624 5623 5622 5620 5619 5618 5616 5615 5614 5613 5613 5613 5613 5612 5615 5618 5620 5623 5624 5626 5629 5631 5634 5637 5639 5644 5648 5652 5655 5659 5662 5666 5669 5672 5674 5676 5678 5679 5681
5621 5619 5616 5613 5611 5610 5608 5606 5605 5604 5602 5601 5600 5599 5598 5597 5597 5596 5597 5600 5603 5606 5608 5610 5612 5614 5617 5620 5623 5627 5631 5635 5639 5643 5647 5651 5654 5658 5660 5663 5665 5667 5669
5610 5607 5604 5601 5598 5596 5594 5592 5591 5589 5588 5587 5586 5584 5583 5583 5581 5581 5581 5583 5585 5589 5592 5595 5596 5598 5600 5603 5607 5610 5614 5618 5623 5627 5631 5636 5640 5643 5646 5649 5652 5655 5657
5598 5595 5591 5588 5586 5583 5580 5578 5576 5575 5574 5572 5571 5569 5568 5567 5566 5567 5566 5567 5569 5571 5576 5580 5581 5582 5583 5587 5591 5594 5598 5603 5607 5612 5616 5621 5625 5629 5632 5635 5639 5642 5644
5585 5582 5579 5576 5573 5570 5567 5564 5562 5560 5559 5557 5556 5555 5554 5552 5552 5551 5552 5553 5553 5555 5559 5564 5566 5567 5568 5571 5575 5579 5583 5588 5593 5597 5602 5606 5610 5615 5618 5622 5625 5628 5631
5573 5569 5566 5563 5560 5556 5553 5550 5548 5546 5544 5543 5541 5540 5539 5538 5537 5537 5537 5538 5539 5540 5543 5549 5551 5553 5555 5558 5561 5565 5570 5575 5580 5584 5588 5592 5596 5600 5604 5608 5612 5615 5618
5560 5557 5553 5550 5547 5543 5540 5537 5534 5531 5529 5528 5527 5525 5525 5523 5523 5523 5524 5525 5526 5528 5530 5534 5538 5539 5542 5545 5548 5553 5557 5562 5568 5572 5575 5579 5583 5587 5591 5595 5599 5603 5606
5548 5545 5541 5537 5534 5530 5527 5523 5519 5517 5515 5513 5511 5510 5510 5509 5509 5509 5510 5512 5514 5515 5517 5520 5524 5527 5530 5533 5536 5541 5545 5550 5555 5559 5562 5566 5570 5574 5578 5582 5586 5590 5593
5537 5533 5529 5525 5521 5518 5514 5510 5506 5503 5500 5498 5496 5495 5495 5495 5495 5496 5497 5500 5501 5503 5505 5508 5511 5515 5518 5521 5525 5530 5534 5539 5544 5548 5551 5554 5558 5561 5565 5570 5574 5578 5581
5526 5522 5517 5514 5510 5505 5501 5497 5492 5489 5486 5484 5482 5481 5481 5481 5481 5482 5484 5487 5489 5492 5494 5497 5500 5504 5508 5511 5515 5520 5525 5529 5534 5537 5540 5543 5547 5551 5554 5558 5562 5565 5569
5516 5511 5507 5503 5498 5494 5489 5484 5479 5475 5473 5470 5469 5468 5468 5468 5469 5470 5472 5474 5478 5481 5484 5486 5490 5494 5499 5502 5506 5510 5514 5519 5524 5528 5529 5533 5536 5540 5544 5548 5552 5555 5558
5507 5502 5498 5493 5488 5483 5478 5473 5467 5463 5461 5459 5457 5456 5456 5457 5458 5459 5461 5464 5467 5470 5474 5477 5481 5486 5489 5493 5496 5501 5505 5509 5514 5517 5520 5524 5527 5531 5534 5538 5541 5544 5547
5498 5493 5489 5484 5479 5473 5467 5462 5458 5454 5451 5449 5447 5446 5446 5448 5448 5449 5451 5455 5458 5462 5465 5468 5472 5476 5480 5484 5487 5491 5495 5500 5504 5508 5511 5515 5519 5522 5525 5528 5531 5534 5537
5489 5485 5480 5475 5470 5465 5459 5454 5449 5446 5443 5441 5439 5439 5439 5439 5440 5441 5443 5446 5450 5454 5456 5459 5464 5468 5471 5475 5478 5482 5487 5491 5496 5500 5503 5507 5510 5513 5516 5519 5522 5525 5528
5481 5476 5472 5467 5462 5457 5452 5446 5442 5438 5436 5434 5433 5432 5432 5431 5432 5433 5435 5439 5443 5446 5449 5452 5456 5459 5463 5467 5471 5475 5479 5484 5488 5493 5496 5500 5503 5505 5509 5512 5514 5517 5520